{"data":{"norad_id":60336,"epoch":"2026-09-21T16:26:38.800320Z","epoch_age_seconds":83200,"freshness":"FRESH","line1":"1 60336U 24136H   26264.68517130  .00002329  00000+0  80035-4 0  9990","line2":"2 60336  53.1592 244.4869 0001010  77.4340 282.6775 15.34403532119681","mean_motion":15.34403532,"eccentricity":0.000101,"inclination_deg":53.1592,"raan_deg":244.4869,"arg_perigee_deg":77.434,"mean_anomaly_deg":282.6775,"bstar":8.0035e-5,"rev_number":11968,"period_min":93.84754205584,"perigee_km":462.00181857493,"apogee_km":463.38366618289,"semimajor_km":6840.8297423789,"source":"CELESTRAK","updated_at":"2026-09-22T09:00:49.220148Z"}}